This demonstration page uses our WeatherBlox Daily Observations layout. Learn more.

39.51506, -84.39828

Hourly Observations for November 23, 2018

Temp ( °F °C ) Dew Point ( °F °C ) Humidity (%) Winds ( mph kmh ) Pressure ( in mb ) Visibility ( mi km ) Precip ( " mm )
12:15 am 00:15 Clear 30 -1.1 26 -3.4 85 85 Calm 30.39 1029 10 16.0934 0 0
12:35 am 00:35 Clear 29 -1.9 25 -3.7 88 88 Calm 30.36 1028 10 16.0934 0 0
12:55 am 00:55 Clear 28 -2 25 -3.7 88 88 N 3 6 30.36 1028 10 16.0934 0 0
1:15 am 01:15 Clear 28 -2.4 25 -3.7 91 91 N 3 6 30.36 1028 10 16.0934 0 0
1:35 am 01:35 Clear 28 -2.1 26 -3.6 90 90 Calm 30.36 1028 10 16.0934 0 0
1:55 am 01:55 Clear 27 -2.9 25 -4.1 92 92 Calm 30.36 1028 10 16.0934 0 0
2:15 am 02:15 Clear 27 -2.6 25 -3.9 91 91 N 3 6 30.36 1028 10 16.0934 0 0
2:35 am 02:35 Clear 27 -2.7 25 -3.8 92 92 Calm 30.36 1028 10 16.0934 0 0
2:55 am 02:55 Clear 27 -2.7 25 -3.7 93 93 Calm 30.33 1027 10 16.0934 0 0
3:15 am 03:15 Clear 27 -2.7 25 -3.8 92 92 NNE 5 7 30.33 1027 10 16.0934 0 0
3:35 am 03:35 Clear 26 -3.1 25 -4.1 93 93 N 5 7 30.33 1027 10 16.0934 0 0
3:55 am 03:55 Clear 25 -3.7 24 -4.6 94 94 NNE 3 6 30.33 1027 10 16.0934 0 0
4:15 am 04:15 Clear 26 -3.3 24 -4.4 92 92 Calm 30.3 1026 10 16.0934 0 0
4:35 am 04:35 Clear 26 -3.6 24 -4.6 93 93 Calm 30.3 1026 10 16.0934 0 0
4:55 am 04:55 Clear 26 -3.5 24 -4.5 93 93 N 3 6 30.3 1026 10 16.0934 0 0
5:15 am 05:15 Clear 26 -3.5 24 -4.4 94 94 Calm 30.3 1026 10 16.0934 0 0
5:35 am 05:35 Clear 26 -3.5 24 -4.4 94 94 Calm 30.3 1026 10 16.0934 0 0
5:55 am 05:55 Clear 24 -4.2 23 -5.1 94 94 N 3 6 30.3 1026 10 16.0934 0 0
6:15 am 06:15 Clear 25 -3.8 24 -4.7 94 94 Calm 30.3 1026 10 16.0934 0 0
6:35 am 06:35 Clear 26 -3.4 24 -4.3 94 94 Calm 30.3 1026 10 16.0934 0 0
6:55 am 06:55 Clear 25 -4.1 23 -4.9 94 94 Calm 30.3 1026 10 16.0934 0 0
7:15 am 07:15 Clear 26 -3.5 24 -4.4 94 94 Calm 30.3 1026 10 16.0934 0 0
7:35 am 07:35 Sunny with Mist and Fog 24 -4.2 23 -5 94 94 N 3 6 30.27 1025 7 11.26538 0 0
7:55 am 07:55 Sunny with Mist and Fog 25 -4.1 24 -4.7 96 96 Calm 30.27 1025 7 11.26538 0 0
8:15 am 08:15 Sunny 27 -3 25 -3.9 94 94 Calm 30.27 1025 7 11.26538 0 0
8:35 am 08:35 Sunny 30 -1.2 27 -2.8 89 89 Calm 30.27 1025 10 16.0934 0 0
9:35 am 09:35 Sunny 35 1.8 29 -1.7 78 78 Calm 30.27 1025 10 16.0934 0 0
10:35 am 10:35 Sunny 42 5.6 32 0.1 68 68 SSE 7 11 30.27 1025 10 16.0934 0 0
11:35 am 11:35 Sunny 47 8.2 34 1.2 62 62 ESE 6 9 30.21 1023 10 16.0934 0 0
11:55 am 11:55 Sunny 48 8.7 34 1.2 60 60 SE 5 7 30.18 1022 10 16.0934 0 0
12:15 pm 12:15 Sunny 49 9.4 35 1.6 59 59 S 6 9 30.18 1022 10 16.0934 0 0
12:35 pm 12:35 Sunny 50 10 35 1.8 57 57 SSE 5 7 30.15 1021 10 16.0934 0 0
12:55 pm 12:55 Sunny 51 10.4 36 2 56 56 S 7 11 30.15 1021 10 16.0934 0 0
1:15 pm 13:15 Sunny 52 10.9 36 2.1 55 55 S 9 15 30.15 1021 10 16.0934 0 0
1:35 pm 13:35 Sunny 51 10.8 36 2.2 56 56 S 5 7 30.12 1020 10 16.0934 0 0
1:55 pm 13:55 Sunny 52 11.1 36 2.4 55 55 S 7 11 30.12 1020 10 16.0934 0 0
2:15 pm 14:15 Sunny 52 11.2 36 2.2 54 54 SSE 7 11 30.12 1020 10 16.0934 0 0
2:35 pm 14:35 Sunny 52 11.2 36 2.3 55 55 S 7 11 30.09 1019 10 16.0934 0 0
2:55 pm 14:55 Sunny 52 11.3 36 2.3 54 54 SSE 8 13 30.09 1019 10 16.0934 0 0
3:15 pm 15:15 Sunny 52 11.3 37 2.7 56 56 SE 6 9 30.06 1018 10 16.0934 0 0
3:35 pm 15:35 Sunny 52 11.3 37 2.7 56 56 SE 6 9 30.06 1018 10 16.0934 0 0
3:55 pm 15:55 Sunny 52 11.2 37 2.9 57 57 SE 7 11 30.06 1018 10 16.0934 0 0
4:15 pm 16:15 Sunny 52 10.9 37 3 58 58 SE 9 15 30.06 1018 10 16.0934 0 0
4:35 pm 16:35 Sunny 51 10.6 38 3.1 60 60 SE 8 13 30.06 1018 10 16.0934 0 0
4:55 pm 16:55 Sunny 51 10.4 38 3.2 61 61 SE 6 9 30.03 1017 10 16.0934 0 0
5:15 pm 17:15 Sunny 50 10.2 38 3.3 63 63 Calm 30.03 1017 10 16.0934 0 0
5:35 pm 17:35 Clear 50 10 38 3.3 63 63 SE 7 11 30.03 1017 10 16.0934 0 0
5:55 pm 17:55 Clear 49 9.7 38 3.2 64 64 SSE 5 7 30.03 1017 10 16.0934 0 0
6:15 pm 18:15 Clear 50 9.8 38 3.1 63 63 SSE 6 9 30 1016 10 16.0934 0 0
6:35 pm 18:35 Clear 50 9.8 37 2.8 62 62 SSE 6 9 30 1016 10 16.0934 0 0
6:55 pm 18:55 Clear 49 9.7 37 2.8 62 62 SSE 3 6 30 1016 10 16.0934 0 0
7:15 pm 19:15 Mostly Cloudy 49 9.6 37 2.7 62 62 Calm 30 1016 10 16.0934 0 0
7:35 pm 19:35 Clear 49 9.7 37 2.7 62 62 ESE 3 6 29.97 1015 10 16.0934 0 0
7:55 pm 19:55 Partly Cloudy 50 9.8 37 2.7 62 62 SE 5 7 29.97 1015 10 16.0934 0 0
8:15 pm 20:15 Partly Cloudy 50 10 37 2.6 60 60 ESE 7 11 29.94 1014 10 16.0934 0 0
8:35 pm 20:35 Partly Cloudy 50 10 37 2.5 60 60 SE 8 13 29.94 1014 10 16.0934 0 0
8:55 pm 20:55 Partly Cloudy 50 10 37 2.6 60 60 SE 3 6 29.91 1013 10 16.0934 0 0
9:15 pm 21:15 Cloudy 50 10.2 37 2.6 60 60 Calm 29.91 1013 10 16.0934 0 0
9:35 pm 21:35 Cloudy 50 10.1 37 2.6 60 60 Calm 29.91 1013 10 16.0934 0 0
9:55 pm 21:55 Cloudy 50 10.1 37 2.6 60 60 SE 3 6 29.88 1012 10 16.0934 0 0
10:15 pm 22:15 Cloudy with Light Rain 49 9.6 39 3.7 67 67 SE 6 9 29.88 1012 10 16.0934 0 0
10:35 pm 22:35 Partly Cloudy 49 9.3 38 3.5 67 67 Calm 29.85 1011 10 16.0934 0 0
10:55 pm 22:55 Clear 49 9.4 38 3.3 66 66 SSE 9 15 29.85 1011 10 16.0934 0 0
11:15 pm 23:15 Mostly Cloudy 49 9.5 38 3.1 65 65 SE 7 11 29.85 1011 10 16.0934 0 0
11:35 pm 23:35 Cloudy with Light Rain 48 9 39 3.9 71 71 SSE 9 15 29.85 1011 10 16.0934 0 0
11:55 pm 23:55 Cloudy with Rain 46 8 41 4.9 81 81 SSE 5 7 29.85 1011 7 11.26538 0.03 0.762

Powered by AerisWeather